Regional Weather Roundup
Issued by NWS San Angelo, TX

Home | Current Version | Previous Version | Text Only | Print | Product List | Glossary On
Versions: 1 2 3 4 5 6 7 8 9 10 11 12 13 14 15 16 17 18 19 20 21 22 23 24 25 26 27 28 29 30 31 32 33 34 35 36 37 38 39 40 41 42 43 44 45 46 47 48 49 50
000
ASUS44 KSJT 051110
RWRSJT
WEST CENTRAL TEXAS REGIONAL WEATHER ROUNDUP
NATIONAL WEATHER SERVICE SAN ANGELO TX
500 AM CST THU MAR 05 2015

NOTE: "FAIR" INDICATES FEW OR NO CLOUDS BELOW 12,000 FEET WITH NO
SIGNIFICANT WEATHER AND/OR OBSTRUCTIONS TO VISIBILITY.

TXZ049-054-064>066-071>073-076>078-098-099-113-114-127-128-139-140-
154-155-168>170-051200
...LOCATIONS ACROSS WEST CENTRAL TEXAS...

CITY           SKY/WX    TMP DP  RH WIND       PRES   REMARKS
SAN ANGELO     CLOUDY    27  21  78 N16       30.47R WCI  15
ABILENE        CLEAR     21  18  88 N8        30.49R WCI  11
DYESS AFB      CLEAR     22  18  85 N6        30.49R WCI  14
JUNCTION       CLOUDY    27  25  92 N15G23    30.39R WCI  15
SWEETWATER     CLEAR     22  20  92 N8        30.50R WCI  12
BROWNWOOD      CLOUDY    27  21  80 N16G24    30.47R WCI  14
COLEMAN        MOSUNNY   24  21  86 N14       30.47R WCI  12
SONORA         CLOUDY    27  23  86 CALM      30.44R
OZONA          CLOUDY    27  23  86 N15       30.46R WCI  15
BRADY          CLOUDY    27  25  93 N17       30.39S WCI  14
$$

TEXAS PANHANDLE/OKLAHOMA PANHANDLE

CITY           SKY/WX    TMP DP  RH WIND       PRES   REMARKS
AMARILLO       CLEAR     16  13  88 W7        30.42S WCI   6
BORGER         CLEAR     19  14  81 W7        30.44R WCI  10
CANADIAN       CLEAR     12  10  89 CALM      30.46R
DALHART        CLEAR     14   9  80 W12       30.39F WCI   0
DUMAS          SUNNY     15  13  89 W8        30.40S WCI   5
GUYMON         NOT AVBL
HEREFORD       SUNNY     12  10  92 W7        30.43R WCI   2
PAMPA          SUNNY     12  10  92 W7        30.43S WCI   1
PERRYTON         N/A     18  14  85 CALM      30.42R
$$

SOUTHERN PANHANDLE/SOUTH PLAINS/ROLLING PLAINS

CITY           SKY/WX    TMP DP  RH WIND       PRES   REMARKS
LUBBOCK        CLOUDY    24  18  77 NW8       30.45R WCI  15
SNYDER         PTCLDY    23  17  78 NW9       30.48R WCI  13
CHILDRESS      PTCLDY    15  12  88 NW7       30.51R WCI   5
SEMINOLE       CLOUDY    25  15  67 N7        30.47R WCI  17
$$

PERMIAN BASIN

CITY           SKY/WX    TMP DP  RH WIND       PRES   REMARKS
MIDLAND        CLOUDY    25  18  74 N13       30.46S WCI  14
ODESSA         CLOUDY    25  18  74 N12       30.47R WCI  14
WINK           CLOUDY    29  19  66 NE10      30.48R WCI  20
$$

FAR WEST/SOUTHWEST MOUNTAINS/TRANS PECOS

CITY           SKY/WX    TMP DP  RH WIND       PRES   REMARKS
ALPINE         CLOUDY    22  21  95 NE12      30.43S WCI  11
DRYDEN           N/A     31  23  72 N12G24    30.44R WCI  22
EL PASO        CLOUDY    34  22  61 E13       30.31S WCI  25
FORT STOCKTON  CLOUDY    24  24 100 N5        30.48R FOG     WCI  18
GUADALUPE PASS NOT AVBL
MARFA          CLOUDY    21  19  93 N21       30.33R WCI   6
PECOS          CLOUDY    28  26  91 N7        30.51S WCI  21
$$

DALLAS/FORT WORTH METROPLEX

CITY           SKY/WX    TMP DP  RH WIND       PRES   REMARKS
DFW AIRPORT    MOCLDY    25  19  78 N16       30.45R WCI  12
FTW MEACHAM    FLURRIES  26  19  74 NW12      30.46R WCI  16
DAL-EXECUTIVE  MOCLDY    25  21  85 N15G23    30.43R WCI  13
GRAND PRAIRIE  PTCLDY    26  23  87 N14       30.45R WCI  15
ADDISON        NOT AVBL
MESQUITE       NOT AVBL
LANCASTER      PTSUNNY   26  20  79 N18       30.44R WCI  13
$$

NORTH CENTRAL TEXAS

CITY           SKY/WX    TMP DP  RH WIND       PRES   REMARKS
SHRMAN/DENISON FAIR      25  21  82 N10       30.47R WCI  15
GAINESVILLE    PTCLDY    22  16  79 NW10      30.50R WCI  11
BRIDGEPORT     SUNNY     25  21  86 N10G17    30.50S WCI  15
DENTON         PTCLDY    23  17  78 N13       30.47R WCI  11
WAXAHACHIE     PTSUNNY   26  24  95 N17G24    30.43R WCI  13
GRANBURY       PTSUNNY   27  21  79 NW10      30.49R WCI  17
$$

WESTERN NORTH TEXAS

CITY           SKY/WX    TMP DP  RH WIND       PRES   REMARKS
WICHITA FALLS  CLEAR     17  13  84 NW9       30.52R WCI   6
VERNON           N/A     16   8  72 NW9       30.54R WCI   4
BRECKENRIDGE   SUNNY     24  21  88 N8        30.50R WCI  15
COMANCHE       CLOUDY    25  24  95 N16G25    30.46R WCI  13
$$

CENTRAL AND SOUTH CENTRAL TEXAS

CITY           SKY/WX    TMP DP  RH WIND       PRES   REMARKS
AUSTIN/BERGSTM FRZ RAIN  32  29  88 N20G30    30.34R WCI  20
WACO           CLOUDY    28  25  88 N20       30.40R WCI  15
HILLSBORO      PTSUNNY   28  25  90 N23       30.41R WCI  14
TEMPLE         CLOUDY    28  23  80 N20G25    30.38R WCI  15
KILLEEN-GRAY   CLOUDY    28  27  93 N23G29    30.38R WCI  14
FORT HOOD      CLOUDY    28  26  92 N18G28    30.38R WCI  15
GEORGETOWN     CLOUDY    30  27  86 N17G30    30.37R WCI  18
LAGO VISTA     CLOUDY    30  28  93 N14G29    30.35R WCI  19
SAN MARCOS     CLOUDY    32  27  80 N23G32    30.32R WCI  19
NEW BRAUNFELS  CLOUDY    34  32  92 N28G37    30.29R WCI  21
RANDOLPH AFB   DRIZZLE   33  28  81 N23G36    30.28S WCI  21
SAN ANTONIO    CLOUDY    34  28  79 N18G33    30.29R WCI  23
STINSON        CLOUDY    35  28  75 N18G35    30.28R WCI  24
PLEASANTON     NOT AVBL
LA GRANGE      MIX PCPN  35  33  92 N23G30    30.28R WCI  23
GIDDINGS       CLOUDY    32  30  93 N13G25    30.35R WCI  23
$$

EAST TEXAS

CITY           SKY/WX    TMP DP  RH WIND       PRES   REMARKS
PARIS          CLOUDY    25  19  80 CALM      30.43R
CLARKSVILLE    NOT AVBL
TYLER          FLURRIES  30  26  85 N16       30.34R WCI  19
LONGVIEW       LGT SNOW  32  28  85 N8        30.32F FOG     WCI  25
PALESTINE      CLOUDY    31  30  95 N13G21    30.33R WCI  22
NACOGDOCHES    CLOUDY    34  30  86 N15G21    30.26S WCI  24
$$

TEXAS HILL COUNTRY AND EDWARDS PLATEAU

CITY           SKY/WX    TMP DP  RH WIND       PRES   REMARKS
LLANO          CLOUDY    30  27  86 CALM      30.44R
HORSESHOE BAY  CLOUDY    31  28  88 N12G22    30.39R WCI  21
KERRVILLE      MIX PCPN  29  26  89 N18G28    30.33R WCI  16
FREDERICKSBRG  CLOUDY    27  25  92 N16       30.33R WCI  15
ROCKSPRINGS    NOT AVBL
HONDO          CLOUDY    33  28  81 N28G33    30.34R WCI  20
UVALDE         CLOUDY    34  29  81 N15       30.36R WCI  24
DEL RIO        CLOUDY    35  26  69 NW16G24   30.43R WCI  25
$$

SOUTHEAST TEXAS

CITY           SKY/WX    TMP DP  RH WIND       PRES   REMARKS
COLLEGE STN    CLOUDY    34  31  88 N21G31    30.31R WCI  22
CALDWELL       CLOUDY    32  32 100 CALM      30.36R
CROCKETT       CLOUDY    37  36  93 N9G16     30.32R WCI  31
BRENHAM        RAIN      36  34  93 N23G30    30.29R WCI  24
HUNTSVILLE     LGT RAIN  36  35  96 N9        30.25R WCI  29
CONROE         LGT RAIN  38  35  89 N8G20     30.24R WCI  32
HOUSTON BUSH   CLOUDY    41  37  86 N23G33    30.19R WCI  31
HOUSTON HOBBY  LGT RAIN  42  39  89 N20G30    30.18R WCI  33
PERLAND        LGT RAIN  42  39  89 NE13G24   30.19R WCI  35
WHARTON        CLOUDY    38  35  91 N22G29    30.21R WCI  27
$$

THE UPPER TEXAS COAST

CITY           SKY/WX    TMP DP  RH WIND       PRES   REMARKS
ORANGE         HVY RAIN  39  37  91 N18G26    30.19R WCI  30
PORT ARTHUR    LGT RAIN  40  37  89 N20G39    30.16R WCI  30
GALVESTON      LGT RAIN  43  41  93 N37G44    30.15R WCI  31
ANGLETON       LGT RAIN  40  39  97 N24G33    30.15R WCI  29
BAY CITY       CLOUDY    40  40  97 N21G29    30.16R WCI  31
$$

TEXAS COASTAL BEND, RIO GRANDE PLAINS DEEP SOUTH TEXAS

CITY           SKY/WX    TMP DP  RH WIND       PRES   REMARKS
VICTORIA       CLOUDY    38  34  85 N20G33    30.24R WCI  28
BEEVILLE       CLOUDY    38  37  92 N21G32    30.24R WCI  28
ROCKPORT       CLOUDY    41  36  82 N29       30.20R WCI  30
PORT ARANSAS   CLOUDY    41  38  88 N24G33    30.19R WCI  31
PORT LAVACA    CLOUDY    39  36  90 N29       30.18R WCI  27
CORPUS CHRISTI CLOUDY    41  36  82 N23G35    30.21R WCI  31
KINGSVILLE NAS CLOUDY    42  39  89 N26G35    30.22R WCI  32
COTULLA        LGT RAIN  42  36  79 N15       30.32R WCI  34
LAREDO         LGT RAIN  42  39  89 NW20G31   30.31R WCI  33
BROWNSVILLE    LGT RAIN  45  43  93 N20G33    30.11R WCI  37
PORT ISABEL    LGT RAIN  46  44  93 N26G37    30.11R FOG     WCI  37
HEBBRONVILLE   LGT RAIN N/A N/A N/A NW22G31   30.23R
MCALLEN        LGT RAIN  44  42  93 N25G35    30.20R FOG     WCI  35
WESLACO        LGT RAIN  43  40  91 N18G25    30.19R WCI  34
FALFURRIAS     CLOUDY    43  37  79 N25G33    30.22R WCI  33
EDINBURG       CLOUDY    44  41  88 N20G25    30.21R FOG     WCI  36
$$


USA.gov is the U.S. government's official web portal to all federal, state and local government web resources and services.